Vertical_Velocity
1 1 -0 -1 1 -1 -4 -2 -0 0 3 3 0 1 -0 -1 -1 -1 0 0 -3 -4 -1 1 -1 -0 0 0 -2 -1 -1 -1 -1 -1 -2 -2 -2 -3 -2 -1 -0 -1 -2 -0 1 -1 -2 -1 -4
1 2 3 0 -2 -3 -2 -2 -1 -0 -0 2 2 1 -1 -5 -1 -0 -1 0 1 1 -1 0 3 2 0 2 2 0 -2 -3 -2 -2 -4 -2 -1 -1 -2 -2 -2 -3 -2 -3 -1 -1 -2 -2 -2
-1 0 1 -1 -7 -7 4 2 -1 1 1 -1 0 1 1 2 1 -0 -1 -0 1 1 2 0 -0 0 1 -1 -2 -0 -0 -0 -1 2 0 -1 -1 -2 -2 -1 -0 -0 -1 -0 -1 1 -1 -2 -1
-2 -1 -1 -2 -9 0 -1 4 3 3 2 2 0 -1 -1 1 1 -1 -0 -1 0 1 1 2 2 2 1 2 1 1 3 3 2 1 2 -0 0 0 -1 -0 -1 -0 -0 -1 1 -0 1 -1 1
1 0 -1 -3 -2 1 3 1 3 4 2 3 1 1 2 -1 -1 -2 -0 0 0 -0 -0 -1 -0 1 2 1 1 1 -0 -2 -1 1 0 -1 -0 0 1 0 -0 -0 -1 -0 2 2 1 3 1
-1 -1 -1 -3 -2 0 2 2 1 1 2 3 5 1 -1 -3 -1 -2 -3 -3 -4 -2 -2 0 1 2 0 -2 -0 -0 1 2 1 -1 1 1 1 0 1 1 0 1 -0 -1 -0 -1 2 4 2
0 -3 -1 -2 -1 2 3 2 2 2 3 2 -1 -3 -0 -2 -1 -0 -4 -2 -1 -1 -1 1 0 -1 -1 -1 -1 0 1 -2 -1 -1 -1 -1 -1 -1 -1 -1 -0 -1 -1 -1 0 -1 2 4 5
-0 -2 -2 -1 -0 3 2 1 -0 -0 0 3 -1 -1 1 3 1 -2 0 -1 -0 -2 1 1 -0 -0 0 0 0 -0 -1 -2 0 -2 -2 -1 -1 -1 -0 0 -0 -1 -1 -2 -1 -1 1 1 4
-1 -1 -2 1 -0 1 2 1 1 1 0 1 -1 -0 -0 1 -0 -1 -0 1 -2 -2 1 -0 1 1 1 -1 -1 -0 -2 -1 -0 -3 -3 -1 -0 -0 -1 -1 -0 0 -0 -0 -2 -0 1 -0 1
-1 1 -0 -0 0 -1 -1 2 4 3 3 1 2 2 -1 1 1 1 -0 -1 -0 0 2 1 2 -0 1 1 0 -1 -2 -1 -2 -2 -3 -2 -1 -1 0 1 0 -1 -1 0 -0 -2 1 1 -0
4 3 2 -0 1 4 3 2 -0 0 2 3 2 1 3 2 3 2 0 1 -1 1 1 1 3 -0 3 0 -1 -2 -2 -4 -4 -4 -3 -2 -0 -1 -1 1 1 -0 1 1 0 -2 -2 -1 -0
1 2 3 1 1 0 1 3 2 3 1 1 -0 0 1 2 3 3 2 1 0 -5 1 -1 -0 3 0 -1 -0 -1 -2 -1 -1 -3 -3 -3 -1 -1 -2 -3 0 1 2 1 1 -2 -3 0 -0
1 1 2 2 2 0 2 3 3 3 4 2 2 2 1 2 2 -1 1 -1 0 -0 1 -0 1 2 0 1 -0 -1 0 -0 -0 -1 -3 -3 -1 -2 -4 -1 -0 -1 2 2 1 -2 -3 -2 -2
2 -1 1 1 2 2 1 1 2 4 4 3 3 2 2 -0 -0 3 2 3 0 -0 -1 2 -2 -0 1 1 1 -1 -1 3 -0 -3 -6 -4 -2 -0 -1 -3 -1 -3 1 2 1 -0 -2 -2 -1
-0 1 2 4 4 4 1 2 -1 1 1 3 -1 1 -0 0 0 0 2 -0 -1 -0 2 4 0 -0 1 3 1 2 3 -1 1 1 1 -2 -1 -1 1 -0 -2 -3 3 2 0 -0 -0 -1 -1
-2 3 3 3 0 -3 -1 7 2 1 3 2 3 1 1 2 0 -0 0 3 4 3 0 -0 -2 -1 -2 -3 -4 -1 0 1 -1 -2 -5 -1 4 4 2 1 -2 -2 -1 1 1 1 3 1 -1
3 6 3 1 -3 -1 -2 3 3 3 4 -1 5 4 -1 2 1 -2 2 2 3 1 2 1 -0 0 -0 -2 -1 1 -2 -5 -6 -5 -5 -4 -2 -1 -3 -2 -1 1 -1 -0 0 1 1 -1 -1
-4 -2 -1 2 4 -1 1 5 1 -0 -1 2 1 0 -1 4 2 0 4 -0 -1 -2 -1 -0 -1 -2 -1 -0 -2 -4 -4 -2 -0 1 1 -1 -2 -2 -1 -1 -3 -1 0 0 -0 1 2 3 2
0 -3 -4 10 -0 -0 1 -3 3 -1 4 5 -1 4 -1 -3 3 3 7 -1 -1 1 1 -2 -1 0 -0 -1 -2 -1 -1 -0 -1 1 1 1 1 1 1 1 2 0 -3 -3 -0 -0 -2 2 -1
1 2 3 0 3 -3 -2 2 -2 -3 4 1 -2 4 -1 3 3 4 7 1 1 2 2 1 3 3 3 2 -2 -0 -1 -1 -2 -3 -3 -2 -0 1 2 2 1 2 3 4 -1 -4 -2 3 -2
-1 1 -0 -2 -1 -0 -3 -1 6 5 1 -3 6 17 20 14 4 5 5 11 -0 -0 0 2 3 3 1 -2 1 -2 -1 -1 -1 -1 -0 2 -0 -3 -2 -1 -0 -0 1 1 1 5 6 4 3
1 -2 -3 -1 0 1 -3 -6 -1 -1 -5 1 10 3 2 6 -0 5 -6 -0 6 -5 3 1 -2 -2 -2 1 4 -2 2 -2 0 -3 -2 -4 -1 2 -0 -2 -2 -3 -2 -0 -1 -3 -2 0 7
-2 -2 -1 2 1 2 -5 -1 2 -1 1 2 1 3 3 9 -1 1 2 13 -13 12 -4 -0 -2 -0 1 4 -1 2 -1 2 1 -3 -3 -2 -5 -1 2 3 2 2 2 -1 -4 -4 -3 -4 -1
-1 1 -0 0 -1 -3 7 -2 5 -1 2 1 -0 -1 4 4 1 -2 -4 20 6 11 8 -4 -3 -2 2 -3 -2 -1 -2 3 1 -0 -2 -2 -2 -4 -0 -1 -0 -3 -1 -1 0 2 2 -1 -4
2 3 -3 -3 -2 -2 0 -3 2 6 1 4 0 1 3 5 6 26 1 35 6 -5 4 -1 -3 -1 -1 -3 -4 -3 3 5 2 1 -1 -0 -2 -4 -6 -5 -4 -3 -2 -2 -0 2 2 -1 1
-1 1 2 -4 -1 5 2 -2 -3 0 -2 -1 6 4 4 0 2 4 16 11 3 -3 -3 -5 -3 -3 -2 -1 -1 -0 5 -1 -1 -1 2 0 1 1 -2 -4 -5 -5 -4 -3 -3 -0 0 -1 1
3 0 1 -3 2 1 5 2 -0 -2 0 -1 0 -2 -1 3 -1 11 11 1 -8 -8 -2 -4 -1 -0 -3 3 3 -1 -0 -1 -2 -3 -0 0 -4 -1 0 -1 2 -2 -5 -5 -1 -3 -2 -1 -2
2 1 0 1 -5 -1 1 -3 -0 -2 3 3 -1 1 -0 7 21 18 4 -6 -4 -2 -3 -1 5 2 4 -1 2 -3 0 -1 -2 -1 -0 -1 -0 -3 -1 -2 -2 0 1 0 -1 -2 -5 0 -3
1 0 -1 0 3 -3 -1 -2 -5 -0 -2 1 2 1 16 -1 2 7 -0 -3 -6 -3 0 -5 3 -1 2 1 -1 -0 -1 -1 -2 -1 -2 -2 -2 -1 -2 -3 -4 -0 0 -2 -1 -2 -3 -2 -2
-0 0 -1 -3 -2 -2 -2 -3 0 -1 9 -4 -3 -2 -1 2 -4 -2 -2 1 2 3 4 1 7 2 -1 0 -1 -0 1 -0 -0 -1 -2 -1 -1 -1 -3 -3 -3 -3 -4 -4 -1 -1 -4 -2 -2
Height
5855 5854 5854 5854 5854 5851 5855 5856 5856 5854 5853 5852 5850 5850 5849 5847 5846 5847 5844 5842 5840 5838 5836 5834 5832 5830 5829 5827 5826 5825 5823 5822 5820 5820 5818 5817 5817 5817 5816 5816 5816 5816 5815 5814 5814 5812 5812 5813 5818
5849 5849 5850 5850 5849 5848 5852 5852 5851 5851 5849 5848 5846 5845 5843 5842 5841 5839 5838 5836 5834 5832 5830 5827 5826 5825 5823 5822 5821 5821 5820 5819 5818 5816 5814 5812 5812 5810 5809 5808 5808 5808 5808 5808 5807 5807 5806 5806 5809
5843 5844 5845 5844 5844 5846 5846 5846 5846 5846 5845 5844 5844 5842 5840 5838 5836 5834 5833 5831 5829 5827 5824 5822 5820 5819 5818 5817 5816 5815 5815 5814 5812 5810 5809 5808 5807 5805 5803 5802 5801 5800 5801 5801 5800 5801 5800 5800 5801
5839 5839 5840 5839 5839 5839 5841 5842 5842 5843 5842 5841 5840 5839 5837 5835 5832 5831 5829 5826 5823 5821 5820 5818 5816 5815 5813 5812 5810 5809 5808 5807 5805 5804 5802 5800 5799 5798 5796 5794 5794 5793 5792 5793 5793 5793 5793 5794 5795
5836 5836 5835 5835 5835 5836 5835 5837 5838 5839 5838 5837 5837 5835 5834 5831 5830 5828 5826 5824 5821 5819 5816 5814 5812 5810 5808 5807 5805 5804 5802 5800 5798 5797 5795 5794 5792 5790 5789 5787 5786 5785 5784 5783 5784 5785 5785 5786 5788
5834 5834 5833 5832 5832 5831 5832 5833 5834 5834 5834 5833 5832 5830 5828 5826 5825 5823 5821 5819 5816 5814 5812 5809 5806 5804 5803 5801 5800 5798 5796 5794 5792 5790 5787 5785 5784 5783 5781 5779 5778 5776 5775 5774 5774 5775 5776 5778 5780
5831 5831 5831 5829 5828 5829 5831 5831 5831 5829 5828 5827 5825 5823 5822 5820 5819 5817 5813 5811 5810 5808 5806 5802 5800 5799 5797 5795 5794 5791 5789 5786 5784 5782 5780 5778 5776 5774 5772 5770 5769 5767 5766 5765 5765 5765 5766 5768 5771
5827 5828 5827 5826 5824 5826 5827 5826 5826 5825 5824 5821 5819 5817 5816 5815 5814 5811 5809 5806 5804 5802 5799 5796 5794 5793 5791 5789 5787 5784 5782 5780 5778 5775 5773 5770 5768 5765 5763 5761 5759 5758 5757 5757 5756 5755 5756 5758 5762
5824 5824 5823 5823 5821 5821 5821 5820 5820 5819 5819 5817 5815 5813 5812 5811 5809 5807 5804 5800 5799 5795 5792 5790 5788 5787 5785 5782 5780 5777 5775 5773 5771 5768 5764 5761 5758 5755 5753 5751 5749 5749 5748 5748 5748 5747 5746 5748 5750
5819 5818 5818 5818 5817 5816 5815 5815 5814 5813 5812 5811 5811 5809 5807 5805 5804 5801 5798 5795 5792 5789 5786 5784 5782 5780 5778 5776 5774 5771 5768 5766 5763 5760 5756 5752 5748 5745 5743 5741 5739 5739 5739 5738 5738 5737 5737 5738 5740
5816 5816 5815 5814 5813 5812 5811 5810 5809 5809 5809 5807 5805 5804 5801 5799 5797 5794 5791 5788 5785 5782 5780 5778 5777 5774 5772 5769 5767 5765 5761 5758 5755 5752 5748 5742 5738 5736 5734 5733 5731 5730 5729 5729 5728 5727 5727 5729 5730
5812 5812 5811 5810 5808 5808 5808 5806 5805 5804 5803 5801 5800 5798 5796 5793 5790 5788 5785 5782 5779 5776 5775 5772 5770 5768 5766 5763 5761 5759 5755 5752 5748 5744 5739 5734 5730 5728 5726 5724 5722 5721 5720 5720 5719 5717 5717 5719 5722
5805 5805 5806 5804 5804 5803 5802 5801 5799 5799 5798 5796 5794 5791 5789 5786 5783 5781 5779 5775 5773 5770 5768 5766 5764 5762 5760 5757 5755 5752 5749 5745 5742 5737 5732 5727 5724 5721 5719 5717 5714 5713 5711 5710 5710 5709 5709 5710 5712
5799 5799 5799 5798 5798 5798 5797 5795 5795 5794 5793 5792 5789 5786 5783 5780 5777 5776 5772 5770 5767 5764 5762 5760 5758 5756 5754 5751 5748 5745 5743 5739 5734 5731 5727 5723 5719 5716 5712 5709 5707 5705 5703 5701 5701 5701 5701 5701 5703
5793 5794 5793 5794 5793 5793 5791 5792 5790 5789 5788 5786 5783 5780 5777 5774 5772 5770 5767 5764 5761 5759 5757 5754 5751 5748 5746 5744 5742 5739 5737 5732 5728 5725 5721 5717 5714 5710 5707 5704 5700 5698 5696 5694 5693 5692 5693 5692 5692
5789 5790 5789 5789 5788 5786 5784 5785 5785 5784 5782 5780 5777 5774 5772 5769 5767 5763 5760 5758 5755 5753 5750 5747 5745 5742 5740 5738 5735 5732 5728 5724 5721 5717 5714 5710 5708 5704 5700 5697 5694 5691 5689 5686 5685 5685 5685 5685 5683
5785 5785 5784 5783 5781 5779 5779 5780 5779 5778 5775 5774 5771 5767 5764 5763 5761 5757 5754 5751 5750 5747 5744 5741 5738 5736 5734 5731 5728 5724 5721 5717 5714 5710 5706 5703 5699 5696 5693 5691 5688 5684 5682 5681 5679 5678 5677 5677 5676
5776 5775 5776 5778 5777 5774 5775 5775 5774 5773 5770 5768 5764 5762 5759 5756 5755 5753 5749 5745 5743 5740 5737 5735 5733 5730 5728 5725 5723 5719 5715 5712 5709 5705 5700 5697 5694 5690 5687 5684 5681 5678 5676 5674 5672 5671 5670 5670 5669
5771 5772 5772 5774 5770 5769 5770 5769 5768 5766 5766 5761 5758 5757 5753 5750 5750 5748 5744 5740 5738 5734 5731 5729 5727 5724 5722 5719 5715 5712 5709 5706 5702 5698 5695 5691 5687 5684 5681 5678 5675 5672 5669 5666 5664 5662 5662 5661 5659
5766 5767 5769 5768 5765 5762 5762 5762 5761 5760 5759 5756 5753 5750 5746 5742 5742 5740 5738 5734 5731 5728 5726 5723 5720 5718 5716 5712 5708 5705 5701 5698 5695 5692 5688 5684 5681 5678 5674 5671 5668 5665 5662 5660 5657 5654 5651 5650 5649
5764 5763 5763 5761 5759 5758 5757 5755 5756 5754 5752 5750 5746 5743 5739 5734 5734 5733 5731 5729 5724 5721 5718 5716 5714 5712 5709 5706 5701 5698 5695 5690 5688 5685 5681 5677 5673 5669 5666 5663 5660 5657 5654 5651 5648 5645 5643 5640 5638
5760 5760 5759 5757 5754 5752 5751 5746 5747 5745 5745 5744 5741 5738 5734 5731 5728 5724 5721 5719 5715 5712 5711 5708 5706 5704 5702 5698 5692 5689 5685 5681 5678 5676 5672 5668 5664 5660 5657 5654 5650 5646 5643 5639 5636 5632 5630 5628 5626
5756 5754 5752 5751 5748 5744 5745 5738 5736 5737 5738 5736 5734 5732 5728 5722 5720 5718 5714 5707 5707 5706 5703 5702 5699 5696 5694 5688 5685 5682 5678 5674 5670 5667 5664 5660 5656 5652 5647 5643 5638 5634 5629 5625 5621 5617 5614 5612 5610
5750 5748 5745 5743 5740 5736 5739 5732 5731 5731 5731 5729 5726 5724 5721 5716 5712 5710 5707 5704 5700 5695 5696 5693 5692 5688 5685 5682 5679 5676 5671 5665 5662 5659 5655 5651 5646 5641 5636 5631 5626 5620 5615 5611 5606 5602 5597 5593 5591
5746 5743 5739 5734 5732 5731 5728 5725 5725 5723 5721 5720 5717 5714 5712 5708 5704 5700 5697 5694 5689 5690 5688 5686 5683 5681 5678 5676 5672 5668 5662 5657 5654 5650 5646 5642 5637 5631 5625 5618 5612 5606 5600 5595 5590 5585 5581 5577 5574
5741 5738 5735 5726 5725 5723 5720 5716 5715 5715 5712 5709 5707 5704 5702 5699 5698 5696 5691 5688 5683 5681 5680 5677 5676 5673 5671 5668 5663 5658 5652 5650 5646 5641 5637 5631 5626 5621 5614 5607 5600 5593 5586 5580 5574 5568 5562 5557 5553
5734 5731 5727 5721 5717 5712 5709 5708 5706 5704 5701 5699 5698 5697 5695 5693 5691 5688 5685 5678 5675 5674 5673 5671 5669 5666 5663 5659 5654 5648 5645 5642 5637 5632 5626 5621 5615 5608 5602 5594 5587 5579 5571 5563 5556 5548 5542 5537 5530
5725 5722 5718 5713 5706 5700 5697 5697 5697 5694 5692 5693 5691 5690 5689 5687 5683 5681 5678 5672 5671 5668 5666 5664 5661 5659 5654 5651 5645 5641 5638 5633 5628 5623 5618 5611 5605 5597 5589 5581 5573 5564 5555 5546 5538 5530 5523 5516 5507
5718 5712 5708 5705 5701 5694 5688 5691 5690 5687 5687 5686 5686 5686 5685 5684 5680 5677 5670 5666 5665 5663 5661 5658 5655 5653 5648 5642 5638 5634 5630 5625 5620 5614 5608 5601 5594 5586 5577 5568 5559 5549 5540 5531 5522 5512 5502 5494 5486
5712 5707 5705 5701 5697 5690 5687 5688 5686 5682 5683 5684 5683 5682 5680 5678 5674 5671 5667 5663 5660 5658 5654 5651 5651 5644 5640 5636 5631 5627 5622 5617 5611 5605 5598 5592 5584 5575 5565 5555 5545 5536 5526 5515 5505 5495 5485 5475 5465